Time_in_sec,Mx,My,Mz
1314275405.40758538,-0.39328471,0.51437557,-0.79132116
1314275405.45557761,-0.39382604,0.51095682,-0.78946561
1314275405.50771046,-0.39223325,0.51484925,-0.78953648
1314275405.55544424,-0.39218551,0.51282525,-0.78898698
1314275405.60846496,-0.39381593,0.51271790,-0.78907931
1314275405.65648007,-0.39383429,0.51093394,-0.78733897
1314275405.70459008,-0.39415392,0.51296109,-0.78790402
1314275405.75645685,-0.39390498,0.51283640,-0.78828770
1314275405.80847359,-0.39299494,0.51310968,-0.79116225
1314275405.85560298,-0.39446107,0.51231688,-0.78632164
1314275405.90791321,-0.39173374,0.51331586,-0.78816724
1314275405.95648575,-0.39526257,0.51159239,-0.78848892
1314275406.00448632,-0.39180902,0.51066130,-0.78748715
1314275406.05546021,-0.39439991,0.51270741,-0.78751743
1314275406.10466671,-0.39270437,0.51270080,-0.78861690
1314275406.15546703,-0.39430979,0.51347017,-0.78818262
1314275406.20757198,-0.39374417,0.51169676,-0.78800416
1314275406.25558066,-0.39377934,0.51205683,-0.78628075
1314275406.29646754,-0.39326915,0.51233327,-0.78904521
1314275406.35757685,-0.39268044,0.51269621,-0.78821671
1314275406.40445018,-0.39319924,0.51357919,-0.78772116
1314275406.45545030,-0.39282826,0.51421118,-0.78823638
1314275406.50747609,-0.39416572,0.51147664,-0.79055232
1314275406.55676007,-0.39352334,0.51306415,-0.78640652
1314275406.60443282,-0.39364877,0.51286072,-0.79079896
1314275406.65550256,-0.39250076,0.51016772,-0.78778887
1314275406.70065784,-0.39361084,0.51310533,-0.79013395
1314275406.75644088,-0.39311922,0.51258087,-0.78877264
1314275406.80442929,-0.39218354,0.51257300,-0.78898501
1314275406.85545588,-0.39255783,0.51128757,-0.78633815
1314275406.90444565,-0.39303109,0.51359588,-0.78943980
1314275406.95794821,-0.39432901,0.50982189,-0.78895420
1314275407.00520635,-0.39172679,0.51243305,-0.78816026
1314275407.05556369,-0.39312726,0.51157498,-0.78903151
1314275407.10853171,-0.39387575,0.51323307,-0.79001707
1314275407.15556645,-0.39268452,0.51118588,-0.78847158
1314275407.20445204,-0.39391509,0.51107532,-0.78867400
1314275407.25547838,-0.39340708,0.51258707,-0.78905499
1314275407.30809903,-0.39329013,0.51195949,-0.78944242
1314275407.35645294,-0.39419392,0.51196128,-0.78869647
1314275407.40852165,-0.39398128,0.51652735,-0.79137689
1314275407.45555878,-0.39316943,0.51181048,-0.78744048
1314275407.50748277,-0.39108893,0.51268506,-0.78879035
1314275407.55548072,-0.39317009,0.51296842,-0.78957599
1314275407.60444975,-0.39268756,0.51055682,-0.78860003
1314275407.65556216,-0.39300057,0.51167673,-0.78689808
1314275407.70389390,-0.39359614,0.51320398,-0.78760815
1314275407.75596452,-0.39385018,0.51194441,-0.78748035
1314275407.80457926,-0.39345136,0.51105994,-0.78771687
1314275407.85658216,-0.39204088,0.51267165,-0.78658479
1314275407.89653587,-0.39168987,0.51280373,-0.78749627
1314275407.95610571,-0.39201248,0.51520920,-0.78806430
1314275408.00850391,-0.39497098,0.51206475,-0.78581715
1314275408.05649185,-0.39266178,0.51229042,-0.78568691
1314275408.10754681,-0.39400408,0.51220131,-0.78775692
1314275408.15576601,-0.39377469,0.51140183,-0.78401577
1314275408.20745611,-0.39153847,0.51597190,-0.78910631
1314275408.25558925,-0.39217788,0.51179188,-0.78671902
1314275408.30848622,-0.39223093,0.51341468,-0.78513891
1314275408.35560393,-0.39346853,0.51217216,-0.78559917
1314275408.40846753,-0.39258066,0.51318085,-0.78648645
1314275408.45562267,-0.39400944,0.51079267,-0.78575277
1314275408.50846457,-0.39458600,0.51294595,-0.78606755
1314275408.55803227,-0.39344424,0.51319939,-0.78733355
1314275408.60846996,-0.39304945,0.51181197,-0.78769946
1314275408.65652227,-0.39346260,0.51141548,-0.78559321
1314275408.70747161,-0.39182681,0.51293141,-0.78750503
1314275408.75560021,-0.39258072,0.51217341,-0.78661191
1314275408.79647613,-0.39286554,0.51280868,-0.78676587
1314275408.85556245,-0.39074904,0.51518750,-0.78732729
1314275408.90754795,-0.39177880,0.51493710,-0.78645372
1314275408.95647216,-0.39511991,0.51169103,-0.78608876
1314275409.00491905,-0.39117396,0.51330656,-0.78786933
1314275409.05557203,-0.39259526,0.51408958,-0.78888685
1314275409.10449290,-0.39255959,0.51055676,-0.78872561
1314275409.15657043,-0.39385024,0.51093704,-0.78760576
1314275409.20450878,-0.39132157,0.51383847,-0.79027450
1314275409.25550556,-0.39341789,0.51498181,-0.78894049
1314275409.29587770,-0.39414763,0.51323617,-0.79003263
1314275409.35645056,-0.39342311,0.51158273,-0.78944725
1314275409.40840459,-0.39322975,0.51549840,-0.79026288
1314275409.45628476,-0.39417985,0.51321787,-0.78830624
1314275409.50756216,-0.39196649,0.51245445,-0.78990221
1314275409.55548882,-0.39189342,0.51233900,-0.79096067
1314275409.60450935,-0.39415661,0.51336384,-0.79016703
1314275409.65544629,-0.39344692,0.51360214,-0.78959656
1314275409.70833421,-0.39235303,0.51386470,-0.79166293
1314275409.75736737,-0.39425266,0.51335776,-0.78950781
1314275409.79650974,-0.39142123,0.51536870,-0.79175377
1314275409.85633421,-0.39286011,0.51121944,-0.79140639
1314275409.90794778,-0.39452958,0.51298404,-0.78965378
1314275409.95551109,-0.39401475,0.51260555,-0.79015332
1314275410.00443912,-0.39326182,0.51348966,-0.79104739
1314275410.04847074,-0.39248800,0.51374012,-0.79166973
1314275410.10848570,-0.39229584,0.51475972,-0.79286271
1314275410.15586996,-0.39492247,0.51311183,-0.78941131
1314275410.21074891,-0.39299789,0.51348805,-0.79116523
1314275410.25657868,-0.39225197,0.51424760,-0.79219174
1314275410.29612160,-0.39433226,0.51238996,-0.79322726
1314275410.35618401,-0.39294586,0.51199138,-0.79274631
1314275410.40450120,-0.39261398,0.51348794,-0.79154211
1314275410.45610690,-0.39339185,0.51273453,-0.79104918
1314275410.50747490,-0.39295194,0.51473856,-0.79024136
1314275410.55596042,-0.39461538,0.51274860,-0.79111922
1314275410.60751271,-0.39204878,0.51589465,-0.79312289
1314275410.65557003,-0.39311895,0.51260531,-0.79103267
1314275410.70450258,-0.39345971,0.51224381,-0.79224581
1314275410.75656271,-0.39529118,0.51225197,-0.79115415
1314275410.80445266,-0.39233214,0.51323104,-0.79139113
1314275410.85596323,-0.39397258,0.51237005,-0.79174435
1314275410.90394282,-0.39413530,0.51476938,-0.79190439
1314275410.95651078,-0.39333293,0.51335287,-0.78998697
1314275411.00401473,-0.39378670,0.51311451,-0.79080874
1314275411.04770207,-0.39201736,0.51284194,-0.79070562
1314275411.10776544,-0.39336261,0.51313114,-0.79277861
1314275411.15590072,-0.39440563,0.51248109,-0.78990883
1314275411.20843935,-0.39297494,0.51360959,-0.79076600
1314275411.25590849,-0.39407456,0.51312071,-0.79109108
1314275411.29665112,-0.39328483,0.51236069,-0.79157203
1314275411.35566592,-0.39281300,0.51435864,-0.79023063
1314275411.40464997,-0.39067656,0.51622993,-0.79052126
1314275411.45579529,-0.39418980,0.51347166,-0.78844160
1314275411.50845671,-0.39283594,0.51423711,-0.79062980
1314275411.54464984,-0.39227811,0.51548743,-0.79020846
1314275411.60845208,-0.39281011,0.51297289,-0.79035306
1314275411.65565372,-0.39444780,0.51271653,-0.78831780
1314275411.70850348,-0.39377666,0.51386815,-0.79054785
1314275411.75645185,-0.39322692,0.51310521,-0.79051083
1314275411.79644370,-0.39205053,0.51294976,-0.78898019
1314275411.85544133,-0.39222732,0.51409250,-0.78953052
1314275411.90449548,-0.39044994,0.51482582,-0.78916854
1314275411.95544767,-0.39170986,0.51230389,-0.78789246
1314275412.00448203,-0.39459434,0.51412976,-0.79059654
1314275412.04748797,-0.39204964,0.51181626,-0.78910464
1314275412.10743260,-0.39370492,0.51284701,-0.78947276
1314275412.15644550,-0.39489478,0.51358581,-0.78662169
1314275412.20892715,-0.39186424,0.51573348,-0.79005367
1314275412.25543475,-0.39215055,0.51344818,-0.78832495
1314275412.30847740,-0.39384779,0.51373142,-0.78948748
1314275412.35549235,-0.39434376,0.51272106,-0.78884363
1314275412.40444946,-0.39217654,0.51269758,-0.78885257
1314275412.45545673,-0.39396805,0.51370555,-0.78696841
1314275412.50747800,-0.39327008,0.51346684,-0.78892076
1314275412.54444695,-0.39371487,0.51310080,-0.78960812
1314275412.60646319,-0.39399171,0.51373452,-0.78962862
1314275412.65625906,-0.39297721,0.51383746,-0.78850800
1314275412.69571948,-0.39196235,0.51497221,-0.78952193
1314275412.75545096,-0.39348873,0.51486939,-0.79014009
1314275412.80442786,-0.39354157,0.51550913,-0.79094541
1314275412.85628247,-0.39222923,0.51535213,-0.78940701
1314275412.90825462,-0.39194554,0.51282823,-0.78950500
1314275412.96305990,-0.39502156,0.51247668,-0.78888053
1314275413.00757599,-0.39230776,0.51526570,-0.79300004
1314275413.04811788,-0.39130363,0.51358318,-0.79000568
1314275413.10762835,-0.39379552,0.51525700,-0.79069221
1314275413.15417314,-0.39398572,0.51398522,-0.78949726
1314275413.20445108,-0.39288986,0.51399553,-0.79156160
1314275413.25544119,-0.39419743,0.51450497,-0.79070956
1314275413.30756855,-0.39297882,0.51512146,-0.79064453
1314275413.35646772,-0.39266810,0.51422942,-0.79008842
1314275413.40459871,-0.39253709,0.51485842,-0.79008561
1314275413.45549679,-0.39574820,0.51236755,-0.78971881
1314275413.50397086,-0.39369363,0.51349896,-0.79147094
1314275413.54462957,-0.39385775,0.51398516,-0.78962284
1314275413.60444045,-0.39376768,0.51374054,-0.79041350
1314275413.65642881,-0.39344496,0.51334989,-0.78959453
1314275413.70799637,-0.39428055,0.51386678,-0.78991199
1314275413.75644875,-0.39392892,0.51284099,-0.78868788
1314275413.80786610,-0.39407441,0.51513553,-0.79084015
1314275413.85593271,-0.39368853,0.51488316,-0.79121506
1314275413.90844297,-0.39195979,0.51255465,-0.78750980
1314275413.95549011,-0.39464858,0.51285642,-0.78939378
1314275414.00873399,-0.39450246,0.51161808,-0.79163611
1314275414.04747725,-0.39294705,0.51310056,-0.79036182
1314275414.10782743,-0.39204052,0.51370347,-0.78871936
1314275414.15652728,-0.39341593,0.51472956,-0.78893846
1314275414.20891523,-0.39254013,0.51422942,-0.79021406
1314275414.25652933,-0.39369586,0.51372677,-0.78921288
1314275414.30847621,-0.39208940,0.51383871,-0.78952074
1314275414.35571408,-0.39317092,0.51510936,-0.78932613
1314275414.40842533,-0.39382088,0.51334846,-0.78908426
1314275414.45548391,-0.39437273,0.51234883,-0.78937423
1314275414.50753546,-0.39373484,0.51260090,-0.79000437
1314275414.54844356,-0.39332193,0.51398045,-0.78972512
1314275414.60763621,-0.39469844,0.51311785,-0.79019618
1314275414.65560269,-0.39419305,0.51382560,-0.78618461
1314275414.70754457,-0.39318702,0.51309758,-0.78984380
1314275414.75656033,-0.39379305,0.51183200,-0.78880554
1314275414.80752158,-0.39338386,0.51273298,-0.79091579
1314275414.85556483,-0.39332205,0.51196563,-0.78997606
1314275414.90846968,-0.39373484,0.51260090,-0.79000437
1314275414.95645380,-0.39365682,0.51185483,-0.79105783
1314275415.00757480,-0.39201629,0.51372325,-0.79057914
1314275415.05096984,-0.39183542,0.51409090,-0.78977400
1314275415.10452938,-0.39300990,0.51298666,-0.79142803
1314275415.15547562,-0.39315602,0.51422501,-0.78918576
1314275415.20443916,-0.39262125,0.51333898,-0.78941447
1314275415.25545692,-0.39449033,0.51413435,-0.79112238
1314275415.30747747,-0.39271817,0.51146859,-0.79126716
1314275415.35643721,-0.39415964,0.51273477,-0.79029548
1314275415.40748596,-0.39329234,0.51540887,-0.79358912
1314275415.45572758,-0.39485136,0.51324856,-0.79047173
1314275415.50428200,-0.39186847,0.51220828,-0.79055947
1314275415.54474020,-0.39215118,0.51460612,-0.79046053
1314275415.60447407,-0.39386749,0.51325589,-0.79214370
1314275415.65644860,-0.39332595,0.51347750,-0.78985459
1314275415.70756245,-0.39343062,0.51463085,-0.79146433
1314275415.75888658,-0.39428133,0.51300991,-0.79229844
1314275415.80771637,-0.39230084,0.51438290,-0.79299313
1314275415.85550451,-0.39272699,0.51361108,-0.79115069
1314275415.90446615,-0.39378139,0.51351571,-0.79293829
1314275415.95614362,-0.39282903,0.51335430,-0.79062283
1314275416.00444078,-0.39135358,0.51283717,-0.79093355
1314275416.04848480,-0.39246207,0.51348335,-0.79126751
1314275416.10748339,-0.39349952,0.51325881,-0.79278737
1314275416.15665436,-0.39213338,0.51233602,-0.79044265
1314275416.20772052,-0.39289635,0.51691759,-0.79357767
1314275416.25549936,-0.39231384,0.51400757,-0.79325694
1314275416.30851293,-0.39291668,0.51138061,-0.79460114
1314275416.35548973,-0.39379835,0.51364487,-0.79320610
1314275416.40445542,-0.39457315,0.51352054,-0.79258478
1314275416.45603704,-0.39187703,0.51437515,-0.79270297
1314275416.50801778,-0.39303058,0.51263726,-0.79408526
1314275416.54844284,-0.39464301,0.51328206,-0.79378337
1314275416.60801435,-0.39056838,0.51474702,-0.79342860
1314275416.65548182,-0.39233708,0.51386166,-0.79139614
1314275416.70446253,-0.39287755,0.51452136,-0.79355884
1314275416.75560284,-0.39318943,0.51352471,-0.79436684
1314275416.80843353,-0.39368641,0.51264048,-0.79372400
1314275416.85644531,-0.39407930,0.51276827,-0.79348153
1314275416.90851259,-0.39322537,0.51302785,-0.79502982
1314275416.95651460,-0.39367467,0.51311755,-0.79120111
1314275417.00745654,-0.39370993,0.51468426,-0.79613328
1314275417.04742885,-0.39141509,0.51362896,-0.79413331
1314275417.10846376,-0.39188614,0.51248795,-0.79308826
1314275417.15568662,-0.39488199,0.51315296,-0.79326433
1314275417.20851851,-0.39174178,0.51452404,-0.79495621
1314275417.25569797,-0.39377519,0.51278341,-0.79519236
1314275417.30845070,-0.39311951,0.51477063,-0.79304278
1314275417.35646439,-0.39327353,0.51301265,-0.79357022
1314275417.40748072,-0.39227167,0.51377207,-0.79484797
1314275417.45543575,-0.39364645,0.51364028,-0.79293150
1314275417.49645543,-0.39381918,0.51128072,-0.79611427
1314275417.54849195,-0.39382979,0.51669765,-0.79562336
1314275417.60847425,-0.39403093,0.51580572,-0.79456478
1314275417.65561533,-0.39310765,0.51325721,-0.79303086
1314275417.70850229,-0.39462966,0.51468915,-0.79565412
1314275417.76329732,-0.39370033,0.51339871,-0.79386336
1314275417.80456376,-0.39188835,0.51593733,-0.79723495
1314275417.85651660,-0.39360604,0.51267403,-0.79690999
1314275417.90757155,-0.39339530,0.51228034,-0.79569864
1314275417.95552182,-0.39472416,0.51239163,-0.79298383
1314275418.00447845,-0.39333394,0.51569313,-0.79651809
1314275418.04758000,-0.39300123,0.51504874,-0.79556376
1314275418.10463786,-0.39318937,0.51453209,-0.79424137
1314275418.15651393,-0.39334235,0.51365542,-0.79464239
1314275418.20847249,-0.39152780,0.51377642,-0.79600191
1314275418.25557637,-0.39244187,0.51300019,-0.79325676
1314275418.30803871,-0.39344233,0.51415384,-0.79398715
1314275418.35660887,-0.39174086,0.51339054,-0.79508066
1314275418.40446115,-0.39250383,0.51175278,-0.79444742
1314275418.45643044,-0.39317942,0.51427835,-0.79410601
1314275418.50831580,-0.39394298,0.51379848,-0.79560828
1314275418.54846597,-0.39311931,0.51378757,-0.79542822
1314275418.60585928,-0.39504662,0.51280665,-0.79606277
1314275418.65558028,-0.39520976,0.51316673,-0.79421371
1314275418.70430946,-0.39178798,0.51425660,-0.79349458
1314275418.75553060,-0.39341035,0.51515514,-0.79332811
1314275418.80445743,-0.39372399,0.51342767,-0.79652357
1314275418.85645604,-0.39218289,0.51362920,-0.79337955
1314275418.90508771,-0.39215678,0.51238936,-0.79536283
1314275418.95644617,-0.39357644,0.51188833,-0.79424381
1314275419.00461745,-0.39263037,0.51366591,-0.79632992
1314275419.04848456,-0.39233679,0.51388603,-0.79365611
1314275419.10447049,-0.39338526,0.51303399,-0.79543781
1314275419.15587258,-0.39400747,0.51275450,-0.79228091
1314275419.20446396,-0.39296639,0.51365685,-0.79515266
1314275419.25647783,-0.39528984,0.51315761,-0.79328769
1314275419.31038141,-0.39138117,0.51337063,-0.79359770
1314275419.35647535,-0.39285770,0.51300639,-0.79341346
1314275419.40753222,-0.39273703,0.51507151,-0.79794163
1314275419.45614386,-0.39163119,0.51261401,-0.79334050
1314275419.50460315,-0.39217103,0.51211578,-0.79336762
1314275419.54757094,-0.39397824,0.51315117,-0.79401028
1314275419.60442472,-0.39262861,0.51439667,-0.79394245
1314275419.65586901,-0.39339578,0.51323897,-0.79105318
1314275419.70792794,-0.39409730,0.51201612,-0.79387575
1314275419.75549293,-0.39376515,0.51353705,-0.79493153
1314275419.80755401,-0.39379433,0.51414782,-0.79307669
1314275419.85559273,-0.39359960,0.51274985,-0.79225755
1314275419.90787983,-0.39324161,0.51300651,-0.79303664
1314275419.95671129,-0.39275593,0.51323879,-0.79168129
1314275420.00848532,-0.39277798,0.51198375,-0.79220492
1314275420.04858589,-0.39142004,0.51425952,-0.79413825
1314275420.10749912,-0.39463630,0.51338226,-0.79139096
1314275420.15660024,-0.39347601,0.51121503,-0.79037803
1314275420.20776176,-0.39303619,0.51442575,-0.79622579
1314275420.25658631,-0.39205089,0.51413208,-0.79337579
1314275420.30849123,-0.39158252,0.51346177,-0.79015362
1314275420.35557961,-0.39303985,0.51274049,-0.79195964
1314275420.40842319,-0.39312664,0.51263118,-0.79342604
1314275420.45565224,-0.39359990,0.51272541,-0.78999758
1314275420.50762391,-0.39219815,0.51348174,-0.79138535
1314275420.54700518,-0.39242804,0.51123458,-0.79324287
1314275420.60856414,-0.39146408,0.51575470,-0.79242378
1314275420.65563560,-0.39343399,0.51297003,-0.78945816
1314275420.70758033,-0.39341775,0.51299137,-0.79145139
1314275420.75556064,-0.39208812,0.51373696,-0.79177976
1314275420.79647827,-0.39227903,0.51261568,-0.79284579
1314275420.85561180,-0.39034230,0.51550823,-0.79408598
1314275420.90461659,-0.39074543,0.51586533,-0.79171890
1314275420.95647120,-0.39225444,0.51145321,-0.79031003
1314275421.00748587,-0.39358753,0.51425868,-0.79186928
1314275421.04846168,-0.39254189,0.51349860,-0.79260153
1314275421.10446024,-0.39251420,0.51397258,-0.78981185
1314275421.15556836,-0.39345694,0.51284850,-0.78985739
1314275421.20446062,-0.39274880,0.51137298,-0.79405981
1314275421.25648212,-0.39160660,0.51145148,-0.79080474
1314275421.30748701,-0.39343667,0.51337272,-0.79172117
1314275421.35647011,-0.39302495,0.51185620,-0.79181933
1314275421.40446591,-0.39030373,0.51459491,-0.79128540
1314275421.45645189,-0.39434850,0.51236862,-0.79123408
1314275421.50845027,-0.39226806,0.51223582,-0.79270941
1314275421.54741526,-0.39312798,0.51172549,-0.79129249
1314275421.60446286,-0.39327580,0.51324046,-0.79131222
1314275421.65580034,-0.39324883,0.51386499,-0.79078358
1314275421.70449710,-0.39213085,0.51613778,-0.79219884
1314275421.75645828,-0.39525405,0.51163965,-0.79287559
1314275421.79548740,-0.39283434,0.51516718,-0.79502338
1314275421.85557175,-0.39290777,0.51425081,-0.79183042
1314275421.90416741,-0.39261588,0.51474762,-0.79141861
1314275421.95556164,-0.39315778,0.51349419,-0.79157323
1314275422.00445342,-0.39288291,0.51311272,-0.79155469
1314275422.04446530,-0.39171720,0.51336157,-0.79242045
1314275422.10460448,-0.39234519,0.51184833,-0.79178041
1314275422.15646625,-0.39232641,0.51345736,-0.78899974
1314275422.20447040,-0.39150703,0.51513326,-0.79321921
1314275422.25404572,-0.39469329,0.51150423,-0.79257667
1314275422.29645181,-0.39267981,0.51375240,-0.79261130
1314275422.35444403,-0.39367235,0.51389712,-0.79333371
1314275422.40458941,-0.39407223,0.51390028,-0.79322362
1314275422.45648456,-0.39481214,0.51339144,-0.79206574
1314275422.50445676,-0.39267522,0.51209003,-0.79047173
1314275422.54889560,-0.39220423,0.51222360,-0.79164225
1314275422.60403275,-0.39297175,0.51224822,-0.79314852
1314275422.65592885,-0.39299718,0.51333755,-0.78890419
1314275422.70445538,-0.39460424,0.51138568,-0.79336828
1314275422.75559425,-0.39307961,0.51476300,-0.79237574
1314275422.79648876,-0.39263904,0.51160383,-0.79219419
1314275422.85546923,-0.39347163,0.51274979,-0.79238319
1314275422.90760708,-0.39322156,0.51451385,-0.79251492
1314275422.95646381,-0.39403883,0.51059532,-0.79080439
1314275423.00766730,-0.39289993,0.51223451,-0.79194790
1314275423.04848099,-0.39281377,0.51350170,-0.79261708
1314275423.10853696,-0.39240429,0.51221299,-0.79045719
1314275423.15588403,-0.39549127,0.51224136,-0.78996909
1314275423.20847178,-0.39321762,0.51400936,-0.79251099
1314275423.25641346,-0.39305186,0.51223910,-0.79222250
1314275423.29645729,-0.39276195,0.51298809,-0.79181272
